DW5444 Weather Reports


time (UTC)temp
C
wind
direction
speed
KPH
gust
KPH
rain 1hr
cm
rain 24hr
cm
rain mn
cm
humidity
%
barometer
mb
20260904220027 16 48 4.8 8.0 0.00 0.00 0.00 47 1012.9
20260904214539 16 303 0.0 4.8 0.00 0.00 0.00 45 1012.9
20260904213033 16 252 1.6 8.0 0.00 0.00 0.00 44 1012.8
20260904211526 17 309 4.8 12.9 0.00 0.00 0.00 45 1012.7
20260904210028 16 270 6.4 9.7 0.00 0.00 0.00 47 1012.7
20260904204524 16 260 3.2 8.0 0.00 0.00 0.00 49 1012.7
20260904203020 16 39 1.6 4.8 0.00 0.00 0.00 51 1012.8
20260904201519 16 322 4.8 8.0 0.00 0.00 0.00 50 1012.8
20260904200019 16 173 4.8 16.1 0.00 0.00 0.00 50 1012.8
20260904194515 16 112 1.6 9.7 0.00 0.00 0.00 49 1012.9
20260904193014 15 291 3.2 11.3 0.00 0.00 0.00 51 1012.9
20260904191512 15 315 0.0 11.3 0.00 0.00 0.00 53 1013.1
20260904190016 15 28 8.0 11.3 0.00 0.00 0.00 53 1013.1
20260904184510 15 47 4.8 9.7 0.00 0.00 0.00 53 1013.1
20260904183010 15 59 0.0 6.4 0.00 0.00 0.00 51 1013.1
20260904181505 15 43 3.2 8.0 0.00 0.00 0.00 54 1013.0
20260904180003 15 161 4.8 9.7 0.00 0.00 0.00 54 1013.1
20260904174502 14 52 1.6 6.4 0.00 0.00 0.00 55 1013.1
20260904173001 14 104 3.2 11.3 0.00 0.00 0.00 56 1013.3
20260904171609 14 192 3.2 9.7 0.00 0.00 0.00 56 1013.1
20260904170056 13 146 3.2 11.3 0.00 0.00 0.00 58 1012.9
20260904164557 13 133 4.8 11.3 0.00 0.00 0.00 59 1012.8
20260904163054 13 234 3.2 8.0 0.00 0.00 0.00 58 1012.7
20260904161550 13 215 3.2 9.7 0.00 0.00 0.00 59 1012.7
20260904160050 13 249 4.8 8.0 0.00 0.00 0.00 60 1012.6
20260904154547 12 254 1.6 8.0 0.00 0.00 0.00 62 1012.6
20260904153046 12 241 4.8 8.0 0.00 0.00 0.00 61 1012.6
20260904151544 12 219 4.8 8.0 0.00 0.00 0.00 63 1012.5
20260904144537 11 114 3.2 6.4 0.00 0.00 0.00 67 1012.2
20260904143033 10 121 0.0 6.4 0.00 0.00 0.00 71 1012.0
20260904141529 9 111 4.8 8.0 0.00 0.00 0.00 72 1011.8
20260904140024 -17 0.0 0.0 0.00 0.00 0.00 1011.6
20260904134538 -17 0.0 0.0 0.00 0.00 0.00 1011.6
20260904133016 -17 0.0 0.0 0.00 0.00 0.00 1011.4
20260904131518 -17 0.0 0.0 0.00 0.00 0.00 1011.3
20260904130012 -17 0.0 0.0 0.00 0.00 0.00 1011.3
20260904124503 -17 0.0 0.0 0.00 0.00 0.00 1011.3
20260904123059 -17 0.0 0.0 0.00 0.00 0.00 1011.3
20260904121554 -17 0.0 0.0 0.00 0.00 0.00 1011.3
20260904120104 7 86 3.2 9.7 0.00 0.00 0.00 77 1011.2
20260904114554 7 126 4.8 9.7 0.00 0.00 0.00 78 1011.2
20260904113051 7 136 6.4 11.3 0.00 0.00 0.00 79 1010.9
20260904111548 7 125 3.2 8.0 0.00 0.00 0.00 78 1010.8
20260904110045 7 80 3.2 8.0 0.00 0.00 0.00 78 1010.6
20260904104543 7 81 8.0 9.7 0.00 0.00 0.00 78 1010.5
20260904103042 7 104 8.0 11.3 0.00 0.00 0.00 79 1010.6
20260904101541 7 127 4.8 8.0 0.00 0.00 0.00 79 1010.4
20260904100039 7 107 4.8 9.7 0.00 0.00 0.00 80 1010.1
20260904094543 7 134 6.4 9.7 0.00 0.00 0.00 81 1010.0
20260904093035 7 137 4.8 11.3 0.00 0.00 0.00 81 1009.9
20260904091534 7 118 8.0 9.7 0.00 0.00 0.00 78 1010.0
20260904090032 7 132 8.0 9.7 0.00 0.00 0.00 81 1009.9
20260904084531 7 132 6.4 9.7 0.00 0.10 0.00 81 1009.9
20260904083040 7 126 6.4 9.7 0.00 0.10 0.00 83 1009.7
20260904081526 7 127 4.8 8.0 0.00 0.10 0.00 84 1009.6
20260904080025 7 126 4.8 8.0 0.00 0.10 0.00 84 1009.6
20260904074525 7 132 4.8 6.4 0.00 0.20 0.00 84 1009.5
20260904073025 7 137 4.8 8.0 0.00 0.20 0.00 84 1009.4
20260904071520 7 119 4.8 6.4 0.00 0.20 0.00 84 1009.3
20260904070017 7 149 3.2 6.4 0.00 0.20 0.00 85 1009.3
20260904064514 7 142 3.2 6.4 0.00 0.20 0.20 84 1009.1
20260904063021 7 156 3.2 6.4 0.00 0.20 0.20 82 1009.1
20260904061511 8 156 3.2 8.0 0.00 0.20 0.20 82 1009.0
20260904060013 8 197 4.8 9.7 0.00 0.20 0.20 80 1009.0
20260904054510 9 227 8.0 12.9 0.00 0.28 0.20 73 1008.9
20260904053011 10 244 6.4 16.1 0.00 0.28 0.20 69 1008.9
20260904051509 8 116 1.6 11.3 0.00 0.28 0.20 70 1008.7
20260904050008 10 6 1.6 9.7 0.00 0.28 0.20 68 1008.8
20260904044508 9 136 3.2 8.0 0.00 0.38 0.20 69 1008.8
20260904043008 10 75 1.6 9.7 0.00 0.38 0.20 69 1008.6
20260904041509 10 130 6.4 9.7 0.00 0.38 0.20 69 1008.6
20260904040007 10 124 6.4 9.7 0.00 0.38 0.20 72 1008.7
20260904034505 10 132 6.4 8.0 0.00 0.64 0.20 71 1008.5
20260904033005 11 222 0.0 6.4 0.00 0.64 0.20 68 1008.2
20260904031503 11 42 4.8 6.4 0.00 0.64 0.20 67 1008.1
20260904030003 12 57 3.2 8.0 0.00 0.64 0.20 66 1008.0
20260904024508 12 52 6.4 9.7 0.00 0.71 0.20 65 1008.0
20260904023002 12 71 0.0 3.2 0.00 0.71 0.20 63 1008.1
20260904021501 13 72 6.4 12.9 0.00 0.71 0.20 63 1008.0
20260904020002 13 66 4.8 11.3 0.00 0.71 0.20 64 1008.1
20260904014615 13 48 6.4 9.7 0.00 0.76 0.20 64 1008.0
20260904013059 13 26 4.8 9.7 0.00 0.76 0.20 64 1008.0
20260904011559 13 9 4.8 11.3 0.00 0.76 0.20 63 1008.0
20260904010058 13 17 4.8 9.7 0.00 0.76 0.20 61 1008.0
20260904004557 13 312 6.4 14.5 0.00 0.84 0.20 59 1008.1
20260904003057 13 354 3.2 9.7 0.00 0.84 0.20 58 1008.1
20260904001556 14 55 4.8 11.3 0.00 0.84 0.20 57 1007.9
20260904000114 14 350 4.8 8.0 0.00 0.84 0.20 56 1008.1
20260903234555 14 335 4.8 9.7 0.00 0.86 0.20 54 1008.3
20260903233056 15 310 4.8 9.7 0.00 0.86 0.20 51 1008.4
20260903231555 15 114 0.0 4.8 0.00 0.86 0.20 48 1008.4
20260903230054 15 196 1.6 6.4 0.00 0.86 0.20 48 1008.6
20260903224610 15 181 3.2 6.4 0.00 0.86 0.20 47 1008.7
20260903223052 15 124 1.6 6.4 0.00 0.86 0.20 45 1008.8
20260903221551 15 250 1.6 8.0 0.00 0.86 0.20 47 1008.9